This is the latest recevied weather packets stored in our database for station/object W4TJP. If no packets are shown the sender has not sent any weather packets the latest 1 day(s).
| Time | Temp. | Humidity | Pressure | Rain* | Wind** | Luminosity | Snow |
|---|---|---|---|---|---|---|---|
| 1778094833 | 17.78° C | 97% | 1012.2 hPa | 1.78 mm | - | 71 W/m² | - |
| 1778094530 | 17.78° C | 97% | 1012.7 hPa | 0 mm | - | 64 W/m² | - |
| 1778092712 | 19.44° C | 93% | 1012 hPa | 0 mm | - | 99 W/m² | - |
| 1778090894 | 19.44° C | 94% | 1011.8 hPa | 0 mm | - | 167 W/m² | - |
| 1778089378 | 19.44° C | 95% | 1012.2 hPa | 0 mm | - | 239 W/m² | - |
| 1778088772 | 18.89° C | 95% | 1012.1 hPa | 0 mm | - | 306 W/m² | - |
| 1778087863 | 17.78° C | 98% | 1012.2 hPa | 0 mm | - | 251 W/m² | - |
| 1778087560 | 17.78° C | 98% | 1012.3 hPa | 0 mm | - | 265 W/m² | - |
| 1778087258 | 17.78° C | 98% | 1012.5 hPa | 0 mm | - | 222 W/m² | - |
| 1778083317 | 18.33° C | 99% | 1012.1 hPa | 0 mm | - | 154 W/m² | - |
| 1778080667 | 18.33° C | 99% | 1011.4 hPa | 0 mm | - | 210 W/m² | - |
| 1778080060 | 17.22° C | 99% | 1010.6 hPa | 0 mm | - | 288 W/m² | - |
| 1778079757 | 17.22° C | 99% | 1010.4 hPa | 0 mm | - | 209 W/m² | - |
| 1778078848 | 17.22° C | 99% | 1010.4 hPa | 0 mm | - | 145 W/m² | - |
| 1778078545 | 17.22° C | 99% | 1010.3 hPa | 0 mm | - | 107 W/m² | - |
| 1778077940 | 16.67° C | 99% | 1010.3 hPa | 0 mm | - | 179 W/m² | - |
| 1778077336 | 16.67° C | 99% | 1010 hPa | 1.27 mm | - | 65 W/m² | - |
| 1778075519 | 16.67° C | 99% | 1011.9 hPa | 0 mm | - | 29 W/m² | - |
| 1778072488 | 16.67° C | 99% | 1010.7 hPa | 0 mm | - | 27 W/m² | - |
| 1778070675 | 17.22° C | 99% | 1010.7 hPa | 0 mm | - | 19 W/m² | - |
| 1778069161 | 17.22° C | 99% | 1010 hPa | 0 mm | - | 20 W/m² | - |
| 1778068254 | 17.22° C | 99% | 1010.1 hPa | 22.86 mm | - | 14 W/m² | - |
| 1778067951 | 17.22° C | 99% | 1010 hPa | 29.97 mm | - | 10 W/m² | - |
| 1778067649 | 17.22° C | 99% | 1010.2 hPa | 10.16 mm | - | 2 W/m² | - |
| 1778066740 | 16.67° C | 99% | 1010 hPa | 4.83 mm | - | 2 W/m² | - |
* Rain latest hour (hover to see other rain measurements)
** Current wind speed in m/s (hover to see current wind gust speed)